COSMOS 1275 DEB, 13796

Orbit data source: Space-Track

COSMOS 1275 DEB, 13796 is space debris in LEO originally from a launch on Thu, 04 Jun 1981 UTC launched from the Plesetsk Missile And Space Complex (PKMTR). Debris objects in space refer to the collection of defunct objects orbiting the Earth. Examples of debris include non-operational satellites, rocket bodies, and fragments generated from explosions, collisions, or faulty payload assembly.

Loading next visibility...
Identifier
13796, 1981-053GQ
Orbit
LEO
Country
Flag of CISCIS
Related business
Manufacturer
Unknown
Mission
Spacecraft
Bus & Motor
Unknown
Mass
Unknown
Launch date (UTC)
1981-06-04 (45 years ago)
Launch vehicle
Unknown
Launch site
Plesetsk Missile And Space Complex (PKMTR)
Object type
Payload
Rocket body
Debris
Shape & HBR
Unknown shape, 0.1 m
Radar Cross Section
Small (<0.1 m²)

Expand to show TLE details & history
Last TLE update: 8 hours ago

TLE from 8 hours ago
0 COSMOS 1275 DEB
1 13796U 81053GQ  26105.24458993  .00001009  00000-0  86030-3 0  9991
2 13796  83.0262 189.0723 0106359 301.3198  84.4157 13.83783050174119
Epoch: 2026-04-15T05:52Z
TLE epoch observation values (Epoch: 2026-04-15T05:52:12.569Z)
Latitude
26.77082°
Longitude
-98.86983°
Altitude
947.005 km
Speed
7.384 km/s
True Right ascension
12h 50m 22s
True Declination
26° 38' 11"
Sunlit
Object was in full shadow at epoch
Visualization orbit readout
Latitude
Unknown
Longitude
Unknown
Altitude
Unknown
Speed
Unknown
Apparent Right ascension
Unknown
Apparent Declination
Unknown
Sunlit
N/A
Visualization observer readout
Local Sidereal Time
20:26:14
Azimuth
Unknown
Elevation
Unknown
Doppler factor
Unknown
Orbital elements
Apogee altitude
1,025.548 km
Perigee altitude
869.716 km
Semi-major axis
7,325.769 km
Eccentricity
0.01064
Inclination
83.0262°
RAAN
189.0723°
Arg. of periapsis
301.3198°
True anomaly
85.63018°
Mean anomaly
84.4157°
Eccentric anomaly
85.02279°
Mean motion
3.46149 °/min
Orbital period
104 mins
BSTAR
0.0008603
Loading maneuver chart data...
Computing Atmospheric mass density...
Loading historical data...
Loading historical data...
Loading historical data...
Loading historical data...
Loading historical data...
Loading historical data...
Loading historical data...

Documentation

Showing up to 5 results
|